Content
SEND FEEDBACK

Daily
Averages
Monthly
Summary
Germany

BUCHENBEUREN, GERMANY


Home > Europe > Germany
Elevation: 1647 feet     Latitude: 49 57N     Longitude: 007 16E

WEATHER
 
SELECT A DAY
Number of Records: 281,615;   Date Range: 7/3/96 - 12/27/14
 
SHARE

PRINT THIS DATA

[ ← Previous Day ]
WEATHER ALMANAC - FEBRUARY 13, 2013
[ Next Day → ]
[ °C ]   °F
Weather ElementAverageHighLow
Temperature25 °F30.2 °F (12:20 pm)19.4 °F (11:50 pm)
Dewpoint16.3 °F23 °F (12:20 pm)12.2 °F (11:20 pm)
Humidity66.5 %80 % (8:50 am)47 % (5:00 pm)
Barometer30.18 in30.35 in (10:00 pm)30.01 in (12:20 am)
Wind Speed4.2 mph6.9 mph (4:50 am)
Weather ElementAverage
Visibility6.7 mi
Wind DirectionSSE (170.3 °)

Weather ElementTotal
Precipitation---
Heating Degree Days40.2 (Base 65)
Averaged from 71 records on February 13, 2013
WEATHER CONDITIONS BREAKOUT
WIND DIRECTION BREAKOUT
WEATHER BY HOUR - FEBRUARY 13, 2013
[ °C ]   °F
Local TimeTemperatureDewpointHumidityBarometerVisibilityWind DirectionWind SpeedGust SpeedPrecipitationEventsConditions
12:20 AM23.0 °F14.0 °F68 %30.01 in6.2 miNorth (360°)2.3 mphSnowLight Snow
12:50 AM23.0 °F14.0 °F68 %30.01 in6.2 miNorth (360°)3.5 mphSnowLight Snow
1:00 AM24.0 °F16.0 °F61 %30.12 in12.0 miNorth (10°)4.5 mphSnowLight Snow
1:20 AM23.0 °F14.0 °F68 %30.01 in6.2 miNE (40°)1.2 mphOvercast
1:50 AM23.0 °F14.0 °F68 %30.04 in6.2 miNorth (360°)2.3 mphSnowLight Snow
2:00 AM24.0 °F16.0 °F59 %30.13 in11.0 miNorth (10°)2.2 mphIce Crystals
2:20 AM23.0 °F14.0 °F68 %30.04 in6.2 miNW (320°)2.3 mphSnowLight Snow
2:50 AM23.0 °F14.0 °F68 %30.04 in6.2 miNorth (360°)2.3 mphSnowLight Snow
3:00 AM24.0 °F15.0 °F59 %30.13 in11.0 miNorth (10°)2.2 mphSnowLight Snow
3:20 AM23.0 °F14.0 °F68 %30.04 in6.2 miNNW (330°)2.3 mphOvercast
3:50 AM23.0 °F15.8 °F74 %30.04 in6.2 miNNW (340°)2.3 mphOvercast
4:00 AM23.0 °F16.0 °F64 %30.15 in10.0 miNorth2.2 mphPartly Cloudy
4:20 AM23.0 °F15.8 °F74 %30.04 in6.2 miNorth (350°)3.5 mphOvercast
4:50 AM23.0 °F15.8 °F74 %30.04 in6.2 miNorth (350°)6.9 mphSnowLight Snow
5:00 AM23.0 °F16.0 °F65 %30.15 in10.0 miNorth (350°)4.5 mphSnowLight Snow
5:20 AM23.0 °F15.8 °F74 %30.06 in6.2 miNorth (350°)5.8 mphSnowLight Snow
5:50 AM23.0 °F15.8 °F74 %30.06 in6.2 miNNW (340°)5.8 mphOvercast
6:00 AM23.0 °F17.0 °F68 %30.18 in9.0 miNNW (330°)2.2 mphOvercast
6:20 AM23.0 °F15.8 °F74 %30.06 in6.2 miNNW (340°)6.9 mphOvercast
6:50 AM23.0 °F15.8 °F74 %30.09 in6.2 miNorth (350°)5.8 mphSnowLight Snow
7:00 AM23.0 °F17.0 °F68 %30.19 in7.0 miNorth4.5 mphSnowLight Snow
7:20 AM23.0 °F15.8 °F74 %30.09 in6.2 miNorth (350°)4.6 mphSnowLight Snow
7:50 AM23.0 °F15.8 °F74 %30.09 in6.2 miNorth (350°)3.5 mphSnowLight Snow
8:00 AM23.0 °F17.0 °F68 %30.22 in6.0 miNorth (350°)2.2 mphSnowLight Snow
8:20 AM23.0 °F15.8 °F74 %30.12 in6.2 miNorth (350°)4.6 mphSnowLight Snow
8:50 AM23.0 °F17.6 °F80 %30.12 in5.6 miNorth (360°)4.6 mphSnowLight Snow
9:00 AM23.0 °F18.0 °F72 %30.24 in5.0 miNNW (340°)2.2 mphSnowLight Snow
9:20 AM24.8 °F17.6 °F74 %30.12 in4.3 miNorth (10°)4.6 mphSnowLight Snow
9:50 AM24.8 °F19.4 °F80 %30.15 in5.0 miNorth (360°)4.6 mphSnowLight Snow
10:00 AM23.0 °F19.0 °F78 %30.26 in4.0 miNNW (340°)2.2 mphSnowLight Snow
10:20 AM24.8 °F19.4 °F80 %30.15 in3.1 miNorth (10°)5.8 mphSnowLight Snow
10:50 AM26.6 °F19.4 °F74 %30.15 in6.2 miNorth (10°)5.8 mphSnowLight Snow
11:00 AM24.0 °F20.0 °F79 %30.28 in7.0 miNE (40°)4.5 mphIce Crystals
11:20 AM28.4 °F21.2 °F74 %30.15 in6.2 miENE (70°)5.8 mphSnowLight Snow
11:50 AM28.4 °F21.2 °F74 %30.18 in6.2 miENE (70°)5.8 mphPartly Cloudy
12:00 PM26.0 °F20.0 °F68 %30.27 in8.0 miNE (50°)4.5 mphSnowLight Snow
12:20 PM30.2 °F23.0 °F75 %30.18 in6.2 miEast (100°)4.6 mphPartly Cloudy
12:50 PM30.2 °F19.4 °F64 %30.18 in6.2 miNE (50°)3.5 mphPartly Cloudy
1:00 PM27.0 °F19.0 °F62 %30.27 in9.0 miNE (40°)6.7 mphPartly Cloudy
1:20 PM30.2 °F19.4 °F64 %30.18 in6.2 miNNE (30°)6.9 mphScattered Clouds
1:50 PM28.4 °F19.4 °F69 %30.18 in6.2 miNE (40°)4.6 mphMostly Cloudy
2:00 PM28.0 °F18.0 °F54 %30.27 in7.0 miENE (60°)4.5 mphMostly Cloudy
2:20 PM28.4 °F17.6 °F64 %30.18 in6.2 miEast (90°)4.6 mphMostly Cloudy
2:50 PM28.4 °F15.8 °F59 %30.18 in6.2 miSE (130°)3.5 mphMostly Cloudy
3:00 PM28.0 °F16.0 °F49 %30.29 in6.0 miEast (90°)4.5 mphOvercast
3:20 PM28.4 °F14.0 °F55 %30.18 in6.2 miVariable2.3 mphMostly Cloudy
3:50 PM28.4 °F15.8 °F59 %30.18 in6.2 miEast (100°)5.8 mphMostly Cloudy
4:00 PM28.0 °F16.0 °F49 %30.29 in6.0 miEast (100°)6.7 mphSnowLight Snow
4:20 PM28.4 °F15.8 °F59 %30.21 in6.2 miEast (100°)4.6 mphMostly Cloudy
4:50 PM28.4 °F15.8 °F59 %30.21 in6.2 miEast (90°)4.6 mphMostly Cloudy
5:00 PM28.0 °F16.0 °F47 %30.31 in6.0 miESE (110°)6.7 mphOvercast
5:20 PM26.6 °F17.6 °F69 %30.21 in6.2 miEast (100°)4.6 mphMostly Cloudy
5:50 PM26.6 °F15.8 °F64 %30.21 in6.2 miEast (100°)3.5 mphMostly Cloudy
6:00 PM27.0 °F17.0 °F54 %30.32 in6.0 miEast (100°)4.5 mphOvercast
6:20 PM26.6 °F14.0 °F59 %30.21 in6.2 miESE (120°)3.5 mphMostly Cloudy
6:50 PM26.6 °F15.8 °F64 %30.24 in6.2 miSE (130°)4.6 mphMostly Cloudy
7:00 PM27.0 °F18.0 °F57 %30.34 in9.0 miESE (110°)6.7 mphPartly Cloudy
7:20 PM26.6 °F14.0 °F59 %30.24 in6.2 miESE (120°)4.6 mphMostly Cloudy
7:50 PM26.6 °F14.0 °F59 %30.24 in6.2 miSE (140°)5.8 mphMostly Cloudy
8:00 PM27.0 °F16.0 °F51 %30.33 in11.0 miSE (130°)4.5 mphOvercast
8:20 PM24.8 °F14.0 °F64 %30.24 in6.2 miSE (130°)3.5 mphMostly Cloudy
8:50 PM26.6 °F14.0 °F59 %30.24 in6.2 miSE (130°)2.3 mphScattered Clouds
9:00 PM25.0 °F16.0 °F56 %30.34 in10.0 miSE (140°)6.7 mphPartly Cloudy
9:20 PM23.0 °F14.0 °F68 %30.24 in6.2 miSE (140°)4.6 mphPartly Cloudy
9:50 PM23.0 °F14.0 °F68 %30.24 in6.2 miSSE (160°)3.5 mphPartly Cloudy
10:00 PM23.0 °F16.0 °F64 %30.35 in9.0 miSSE (160°)2.2 mphScattered Clouds
10:20 PM21.2 °F14.0 °F74 %30.24 in6.2 miSE (140°)3.5 mphMostly Cloudy
10:50 PM21.2 °F14.0 °F74 %30.24 in6.2 miSSE (160°)4.6 mphPartly Cloudy
11:00 PM23.0 °F16.0 °F64 %30.35 in8.0 miSSE (160°)4.5 mphScattered Clouds
11:20 PM21.2 °F12.2 °F68 %30.21 in6.2 miSE (130°)3.5 mphPartly Cloudy
11:50 PM19.4 °F14.0 °F80 %30.21 in6.2 miSE (140°)2.3 mphPartly Cloudy
Hourly data recorded from EDFH, located miles away from Buchenbeuren, Germany







STORIES FROM OUR PARTNERS